User: anonymous   Login
Location: Campillo
(40.8621°N, 4.2488°W)
Time: 02:55:27
(UTC+00:00)
Language:

DELTA 2 R/B (1) - Orbit

View from above orbital plane
View from above orbital plane
View from above satellite
View from above satellite

Ground track
Ground track

The orbit data is extracted from the following two-line orbital elements,

1 27665U 03005C   21210.57917660  .00000026  00000-0  43806-4 0  9994
2 27665  39.5773  14.5763 0010026 315.7030 102.5788 14.28558052965872
Epoch (UTC): 29 July 2021 13:54:00
Eccentricity: 0.0010026
inclination: 39.5773°
perigee height: 789 km
apogee height: 804 km
right ascension of ascending node: 14.5763°
argument of perigee: 315.7030°
revolutions per day: 14.28558052
mean anomaly at epoch: 102.5788°
orbit number at epoch: 96587

The dashed part of the orbit path shows where the satellite is in the earth's shadow,  

DLR